| time (UTC) | temp C | wind direction | speed KPH | gust KPH | rain 1hr cm | rain 24hr cm | rain mn cm | humidity % | barometer mb |
| 20260905185622 | 18 | 255 | 0.0 | 0.0 | 0.00 | 0.00 | 0.00 | 63 | 1024.7 |
| 20260905185122 | 18 | 255 | 0.0 | 1.6 | 0.00 | 0.00 | 0.00 | 61 | 1024.5 |
| 20260905184917 | 18 | 255 | 0.0 | 1.6 | 0.00 | 0.00 | 0.00 | 61 | 1024.5 |
| 20260905184120 | 18 | 255 | 0.0 | 0.0 | 0.00 | 0.00 | 0.00 | 60 | 1024.5 |
| 20260905183916 | 19 | 255 | 0.0 | 3.2 | 0.00 | 0.00 | 0.00 | 60 | 1024.4 |
| 20260905183121 | 19 | 255 | 0.0 | 3.2 | 0.00 | 0.00 | 0.00 | 60 | 1024.4 |
| 20260905182622 | 19 | 255 | 1.6 | 4.8 | 0.00 | 0.00 | 0.00 | 59 | 1024.4 |
| 20260905182119 | 19 | 255 | 1.6 | 4.8 | 0.00 | 0.00 | 0.00 | 58 | 1024.5 |
| 20260905181617 | 19 | 255 | 3.2 | 4.8 | 0.00 | 0.00 | 0.00 | 58 | 1024.4 |
| 20260905181122 | 20 | 255 | 1.6 | 3.2 | 0.00 | 0.00 | 0.00 | 58 | 1024.4 |
| 20260905180617 | 20 | 255 | 1.6 | 6.4 | 0.00 | 0.00 | 0.00 | 57 | 1024.3 |
| 20260905180135 | 20 | 255 | 3.2 | 9.7 | 0.00 | 0.00 | 0.00 | 55 | 1024.4 |
| 20260905175615 | 20 | 258 | 1.6 | 9.7 | 0.00 | 0.00 | 0.00 | 55 | 1024.3 |
| 20260905175114 | 20 | 269 | 3.2 | 9.7 | 0.00 | 0.00 | 0.00 | 55 | 1024.4 |
| 20260905174614 | 20 | 254 | 6.4 | 9.7 | 0.00 | 0.00 | 0.00 | 55 | 1024.4 |
| 20260905174113 | 20 | 243 | 4.8 | 9.7 | 0.00 | 0.00 | 0.00 | 55 | 1024.3 |
| 20260905173607 | 20 | 259 | 3.2 | 8.0 | 0.00 | 0.00 | 0.00 | 55 | 1024.2 |
| 20260905173421 | 20 | 286 | 1.6 | 6.4 | 0.00 | 0.00 | 0.00 | 55 | 1024.2 |
| 20260905172610 | 20 | 309 | 3.2 | 8.0 | 0.00 | 0.00 | 0.00 | 55 | 1024.2 |
| 20260905172108 | 20 | 295 | 3.2 | 9.7 | 0.00 | 0.00 | 0.00 | 54 | 1024.2 |
| 20260905171607 | 20 | 299 | 1.6 | 9.7 | 0.00 | 0.00 | 0.00 | 54 | 1024.3 |
| 20260905171307 | 21 | 245 | 4.8 | 9.7 | 0.00 | 0.00 | 0.00 | 53 | 1024.2 |
| 20260905171229 | 20 | 295 | 3.2 | 9.7 | 0.00 | 0.00 | 0.00 | 53 | 1024.2 |
| 20260905170136 | 21 | 305 | 3.2 | 9.7 | 0.00 | 0.00 | 0.00 | 53 | 1024.2 |
| 20260905165604 | 21 | 286 | 3.2 | 9.7 | 0.00 | 0.00 | 0.00 | 53 | 1024.3 |
| 20260905165406 | 21 | 244 | 4.8 | 11.3 | 0.00 | 0.00 | 0.00 | 52 | 1024.3 |
| 20260905164603 | 21 | 261 | 3.2 | 11.3 | 0.00 | 0.00 | 0.00 | 51 | 1024.2 |
| 20260905164102 | 21 | 233 | 6.4 | 11.3 | 0.00 | 0.00 | 0.00 | 51 | 1024.3 |
| 20260905163604 | 21 | 243 | 4.8 | 17.7 | 0.00 | 0.00 | 0.00 | 51 | 1024.2 |
| 20260905163108 | 21 | 228 | 11.3 | 17.7 | 0.00 | 0.00 | 0.00 | 50 | 1024.2 |
| 20260905162858 | 21 | 237 | 8.0 | 11.3 | 0.00 | 0.00 | 0.00 | 50 | 1024.2 |
| 20260905162103 | 22 | 243 | 4.8 | 14.5 | 0.00 | 0.00 | 0.00 | 50 | 1024.2 |
| 20260905161604 | 22 | 281 | 3.2 | 14.5 | 0.00 | 0.00 | 0.00 | 49 | 1024.3 |
| 20260905161411 | 22 | 258 | 6.4 | 14.5 | 0.00 | 0.00 | 0.00 | 49 | 1024.2 |
| 20260905160908 | 23 | 259 | 6.4 | 14.5 | 0.00 | 0.00 | 0.00 | 47 | 1024.3 |
| 20260905160117 | 23 | 278 | 1.6 | 9.7 | 0.00 | 0.00 | 0.00 | 46 | 1024.3 |
| 20260905155609 | 24 | 288 | 4.8 | 9.7 | 0.00 | 0.00 | 0.00 | 47 | 1024.4 |
| 20260905155104 | 25 | 266 | 4.8 | 14.5 | 0.00 | 0.00 | 0.00 | 45 | 1024.2 |
| 20260905154602 | 25 | 265 | 6.4 | 14.5 | 0.00 | 0.00 | 0.00 | 45 | 1024.2 |
| 20260905154408 | 25 | 264 | 6.4 | 11.3 | 0.00 | 0.00 | 0.00 | 47 | 1024.2 |
| 20260905153605 | 25 | 314 | 3.2 | 17.7 | 0.00 | 0.00 | 0.00 | 48 | 1024.3 |
| 20260905153101 | 24 | 306 | 8.0 | 17.7 | 0.00 | 0.00 | 0.00 | 46 | 1024.3 |
| 20260905152605 | 24 | 269 | 6.4 | 17.7 | 0.00 | 0.00 | 0.00 | 48 | 1024.3 |
| 20260905152101 | 24 | 251 | 6.4 | 17.7 | 0.00 | 0.00 | 0.00 | 45 | 1024.4 |
| 20260905151603 | 25 | 269 | 9.7 | 14.5 | 0.00 | 0.00 | 0.00 | 45 | 1024.2 |
| 20260905151100 | 25 | 293 | 8.0 | 14.5 | 0.00 | 0.00 | 0.00 | 44 | 1024.3 |
| 20260905150602 | 25 | 223 | 6.4 | 14.5 | 0.00 | 0.00 | 0.00 | 44 | 1024.3 |
| 20260905150117 | 25 | 209 | 4.8 | 16.1 | 0.00 | 0.00 | 0.00 | 44 | 1024.3 |
| 20260905145606 | 25 | 285 | 8.0 | 17.7 | 0.00 | 0.00 | 0.00 | 46 | 1024.3 |
| 20260905145058 | 25 | 255 | 9.7 | 17.7 | 0.00 | 0.00 | 0.00 | 44 | 1024.5 |
| 20260905144557 | 25 | 240 | 6.4 | 9.7 | 0.00 | 0.00 | 0.00 | 45 | 1024.5 |
| 20260905144055 | 26 | 316 | 3.2 | 11.3 | 0.00 | 0.00 | 0.00 | 45 | 1024.4 |
| 20260905143856 | 26 | 103 | 1.6 | 11.3 | 0.00 | 0.00 | 0.00 | 47 | 1024.3 |
| 20260905143107 | 25 | 343 | 6.4 | 14.5 | 0.00 | 0.00 | 0.00 | 48 | 1024.3 |
| 20260905142855 | 25 | 248 | 6.4 | 14.5 | 0.00 | 0.00 | 0.00 | 47 | 1024.3 |
| 20260905142406 | 25 | 247 | 6.4 | 16.1 | 0.00 | 0.00 | 0.00 | 47 | 1024.3 |
| 20260905141547 | 24 | 269 | 4.8 | 19.3 | 0.00 | 0.00 | 0.00 | 49 | 1024.2 |
| 20260905141057 | 24 | 299 | 9.7 | 19.3 | 0.00 | 0.00 | 0.00 | 47 | 1024.3 |
| 20260905140546 | 24 | 347 | 9.7 | 17.7 | 0.00 | 0.00 | 0.00 | 47 | 1024.3 |
| 20260905140117 | 24 | 254 | 6.4 | 14.5 | 0.00 | 0.00 | 0.00 | 49 | 1024.2 |
| 20260905135538 | 24 | 283 | 4.8 | 14.5 | 0.00 | 0.00 | 0.00 | 47 | 1024.2 |
| 20260905135404 | 23 | 303 | 8.0 | 17.7 | 0.00 | 0.00 | 0.00 | 50 | 1024.2 |
| 20260905134544 | 23 | 234 | 8.0 | 22.5 | 0.00 | 0.00 | 0.00 | 49 | 1024.3 |
| 20260905134041 | 23 | 250 | 11.3 | 22.5 | 0.00 | 0.00 | 0.00 | 50 | 1024.2 |
| 20260905133539 | 23 | 245 | 6.4 | 16.1 | 0.00 | 0.00 | 0.00 | 51 | 1024.2 |
| 20260905133236 | 23 | 282 | 6.4 | 14.5 | 0.00 | 0.00 | 0.00 | 51 | 1024.1 |
| 20260905133204 | 23 | 255 | 8.0 | 16.1 | 0.00 | 0.00 | 0.00 | 50 | 1024.2 |
| 20260905132045 | 23 | 162 | 4.8 | 11.3 | 0.00 | 0.00 | 0.00 | 51 | 1024.1 |
| 20260905131535 | 22 | 243 | 4.8 | 14.5 | 0.00 | 0.00 | 0.00 | 53 | 1024.1 |
| 20260905131048 | 22 | 282 | 6.4 | 14.5 | 0.00 | 0.00 | 0.00 | 51 | 1024.0 |
| 20260905130532 | 22 | 285 | 3.2 | 14.5 | 0.00 | 0.00 | 0.00 | 53 | 1024.1 |
| 20260905130101 | 23 | 313 | 6.4 | 11.3 | 0.00 | 0.00 | 0.00 | 54 | 1024.0 |
| 20260905125534 | 22 | 248 | 6.4 | 16.1 | 0.00 | 0.00 | 0.00 | 53 | 1024.1 |
| 20260905125238 | 22 | 261 | 9.7 | 19.3 | 0.00 | 0.00 | 0.00 | 51 | 1024.0 |
| 20260905125153 | 22 | 305 | 6.4 | 19.3 | 0.00 | 0.00 | 0.00 | 54 | 1024.1 |
| 20260905124044 | 22 | 248 | 8.0 | 17.7 | 0.00 | 0.00 | 0.00 | 53 | 1024.0 |
| 20260905123529 | 22 | 312 | 8.0 | 17.7 | 0.00 | 0.00 | 0.00 | 54 | 1024.0 |
| 20260905123102 | 21 | 300 | 6.4 | 20.9 | 0.00 | 0.00 | 0.00 | 57 | 1024.0 |
| 20260905122527 | 21 | 283 | 8.0 | 20.9 | 0.00 | 0.00 | 0.00 | 55 | 1024.0 |
| 20260905122042 | 21 | 269 | 9.7 | 19.3 | 0.00 | 0.00 | 0.00 | 54 | 1023.9 |
| 20260905121526 | 21 | 278 | 6.4 | 19.3 | 0.00 | 0.00 | 0.00 | 57 | 1024.0 |
| 20260905121039 | 21 | 269 | 6.4 | 19.3 | 0.00 | 0.00 | 0.00 | 58 | 1024.0 |
| 20260905120520 | 21 | 317 | 6.4 | 16.1 | 0.00 | 0.00 | 0.00 | 58 | 1023.9 |
| 20260905120112 | 20 | 257 | 8.0 | 16.1 | 0.00 | 0.00 | 0.00 | 57 | 1023.9 |
| 20260905115525 | 20 | 266 | 9.7 | 19.3 | 0.00 | 0.00 | 0.00 | 60 | 1023.9 |
| 20260905115054 | 21 | 269 | 6.4 | 19.3 | 0.00 | 0.00 | 0.00 | 61 | 1023.9 |
| 20260905114529 | 20 | 299 | 6.4 | 17.7 | 0.00 | 0.00 | 0.00 | 61 | 1023.9 |
| 20260905114036 | 20 | 296 | 6.4 | 16.1 | 0.00 | 0.00 | 0.00 | 60 | 1024.0 |
| 20260905113515 | 20 | 336 | 3.2 | 16.1 | 0.00 | 0.00 | 0.00 | 60 | 1024.0 |
| 20260905113047 | 19 | 264 | 4.8 | 19.3 | 0.00 | 0.00 | 0.00 | 62 | 1024.1 |
| 20260905112514 | 19 | 290 | 8.0 | 19.3 | 0.00 | 0.00 | 0.00 | 62 | 1024.1 |
| 20260905112040 | 19 | 300 | 6.4 | 17.7 | 0.00 | 0.00 | 0.00 | 62 | 1024.0 |
| 20260905111529 | 19 | 265 | 8.0 | 17.7 | 0.00 | 0.00 | 0.00 | 63 | 1024.0 |
| 20260905111039 | 18 | 300 | 4.8 | 16.1 | 0.00 | 0.00 | 0.00 | 65 | 1024.0 |
| 20260905110832 | 18 | 248 | 8.0 | 16.1 | 0.00 | 0.00 | 0.00 | 63 | 1024.1 |
| 20260905110101 | 18 | 345 | 8.0 | 17.7 | 0.00 | 0.00 | 0.00 | 64 | 1024.0 |
| 20260905105520 | 18 | 266 | 8.0 | 17.7 | 0.00 | 0.00 | 0.00 | 64 | 1024.0 |
| 20260905105342 | 18 | 303 | 11.3 | 17.7 | 0.00 | 0.00 | 0.00 | 64 | 1024.1 |
| 20260905104823 | 19 | 290 | 6.4 | 16.1 | 0.00 | 0.00 | 0.00 | 65 | 1024.0 |
| 20260905104013 | 19 | 271 | 9.7 | 17.7 | 0.00 | 0.00 | 0.00 | 64 | 1023.9 |
| 20260905103513 | 18 | 281 | 4.8 | 19.3 | 0.00 | 0.00 | 0.00 | 66 | 1023.8 |
| 20260905103050 | 18 | 235 | 9.7 | 19.3 | 0.00 | 0.00 | 0.00 | 64 | 1023.8 |
| 20260905102815 | 18 | 290 | 9.7 | 17.7 | 0.00 | 0.00 | 0.00 | 66 | 1023.9 |
| 20260905102354 | 18 | 240 | 4.8 | 14.5 | 0.00 | 0.00 | 0.00 | 68 | 1023.8 |
| 20260905101525 | 18 | 299 | 4.8 | 17.7 | 0.00 | 0.00 | 0.00 | 67 | 1023.8 |
| 20260905101457 | 18 | 307 | 9.7 | 17.7 | 0.00 | 0.00 | 0.00 | 67 | 1023.8 |
| 20260905100005 | 18 | 302 | 6.4 | 19.3 | 0.00 | 0.00 | 0.00 | 69 | 1023.7 |
| 20260905095814 | 17 | 286 | 3.2 | 9.7 | 0.00 | 0.00 | 0.00 | 71 | 1023.6 |
| 20260905095002 | 17 | 0.0 | 0.0 | 0.00 | 0.00 | 0.00 | 70 | 1023.6 | |
| 20260905094512 | 17 | 0.0 | 0.0 | 0.00 | 0.00 | 0.00 | 71 | 1023.7 | |
| 20260905094157 | 17 | 0.0 | 0.0 | 0.00 | 0.00 | 0.00 | 71 | 1023.5 | |
| 20260905094048 | 17 | 0.0 | 0.0 | 0.00 | 0.00 | 0.00 | 71 | 1023.6 | |
| 20260905093341 | 17 | 0.0 | 0.0 | 0.00 | 0.00 | 0.00 | 73 | 1023.4 | |
| 20260905092500 | 17 | 0.0 | 0.0 | 0.00 | 0.00 | 0.00 | 74 | 1023.6 | |
| 20260905091952 | 16 | 0.0 | 0.0 | 0.00 | 0.03 | 0.00 | 73 | 1023.4 | |
| 20260905091452 | 16 | 0.0 | 0.0 | 0.00 | 0.03 | 0.00 | 74 | 1023.4 | |
| 20260905090953 | 16 | 0.0 | 0.0 | 0.00 | 0.03 | 0.00 | 75 | 1023.4 | |
| 20260905090733 | 16 | 0.0 | 0.0 | 0.00 | 0.03 | 0.00 | 76 | 1023.3 | |
| 20260905090636 | 16 | 0.0 | 0.0 | 0.00 | 0.03 | 0.00 | 77 | 1023.4 | |
| 20260905085656 | 16 | 0.0 | 0.0 | 0.00 | 0.03 | 0.00 | 77 | 1023.3 | |
| 20260905085607 | 16 | 0.0 | 0.0 | 0.00 | 0.03 | 0.00 | 76 | 1023.4 | |
| 20260905084757 | 16 | 0.0 | 0.0 | 0.00 | 0.03 | 0.00 | 76 | 1023.2 | |
| 20260905083941 | 16 | 0.0 | 0.0 | 0.00 | 0.03 | 0.00 | 77 | 1023.2 | |
| 20260905083442 | 15 | 0.0 | 0.0 | 0.00 | 0.03 | 0.00 | 78 | 1023.0 | |
| 20260905082938 | 15 | 0.0 | 0.0 | 0.00 | 0.03 | 0.00 | 79 | 1023.0 | |
| 20260905082440 | 15 | 0.0 | 0.0 | 0.00 | 0.03 | 0.00 | 79 | 1022.9 | |
| 20260905081938 | 15 | 0.0 | 0.0 | 0.00 | 0.03 | 0.00 | 79 | 1022.9 | |
| 20260905081438 | 15 | 0.0 | 0.0 | 0.00 | 0.03 | 0.00 | 80 | 1022.9 | |
| 20260905080935 | 15 | 0.0 | 0.0 | 0.00 | 0.03 | 0.00 | 79 | 1022.8 | |
| 20260905080434 | 15 | 0.0 | 0.0 | 0.00 | 0.03 | 0.00 | 80 | 1022.6 | |
| 20260905075932 | 15 | 0.0 | 0.0 | 0.00 | 0.03 | 0.00 | 80 | 1022.7 | |
| 20260905075430 | 15 | 0.0 | 0.0 | 0.00 | 0.03 | 0.00 | 81 | 1022.6 | |
| 20260905075316 | 15 | 0.0 | 0.0 | 0.00 | 0.03 | 0.00 | 81 | 1022.6 | |
| 20260905074431 | 15 | 0.0 | 0.0 | 0.00 | 0.03 | 0.00 | 81 | 1022.6 | |
| 20260905074304 | 14 | 0.0 | 0.0 | 0.00 | 0.03 | 0.00 | 82 | 1022.5 | |
| 20260905073425 | 14 | 0.0 | 0.0 | 0.00 | 0.05 | 0.00 | 82 | 1022.5 | |
| 20260905072926 | 14 | 0.0 | 0.0 | 0.00 | 0.05 | 0.00 | 83 | 1022.4 | |
| 20260905072731 | 14 | 0.0 | 0.0 | 0.00 | 0.05 | 0.00 | 83 | 1022.4 | |
| 20260905071924 | 14 | 0.0 | 0.0 | 0.00 | 0.05 | 0.00 | 83 | 1022.3 | |
| 20260905071422 | 13 | 0.0 | 0.0 | 0.00 | 0.05 | 0.00 | 84 | 1022.3 | |
| 20260905070927 | 13 | 0.0 | 0.0 | 0.00 | 0.05 | 0.00 | 85 | 1022.2 | |
| 20260905070422 | 13 | 0.0 | 0.0 | 0.00 | 0.23 | 0.00 | 85 | 1022.1 | |
| 20260905065920 | 13 | 0.0 | 0.0 | 0.00 | 0.25 | 0.00 | 86 | 1022.1 | |
| 20260905065422 | 13 | 0.0 | 0.0 | 0.00 | 0.28 | 0.00 | 86 | 1021.9 | |
| 20260905064920 | 13 | 0.0 | 0.0 | 0.00 | 0.28 | 0.00 | 86 | 1021.7 | |
| 20260905064422 | 13 | 0.0 | 0.0 | 0.00 | 0.28 | 0.00 | 86 | 1021.7 | |
| 20260905063917 | 12 | 0.0 | 0.0 | 0.00 | 0.28 | 0.00 | 87 | 1021.7 | |
| 20260905063723 | 12 | 0.0 | 0.0 | 0.00 | 0.28 | 0.00 | 87 | 1021.7 | |
| 20260905062919 | 12 | 0.0 | 0.0 | 0.00 | 0.28 | 0.00 | 88 | 1021.6 | |
| 20260905062418 | 12 | 0.0 | 0.0 | 0.00 | 0.28 | 0.00 | 88 | 1021.5 | |
| 20260905061920 | 12 | 0.0 | 0.0 | 0.00 | 0.28 | 0.00 | 88 | 1021.5 | |
| 20260905061414 | 12 | 0.0 | 0.0 | 0.00 | 0.28 | 0.00 | 88 | 1021.4 | |
| 20260905060916 | 12 | 0.0 | 0.0 | 0.00 | 0.28 | 0.00 | 88 | 1021.4 | |
| 20260905060413 | 12 | 0.0 | 0.0 | 0.00 | 0.28 | 0.00 | 88 | 1021.3 | |
| 20260905055916 | 12 | 0.0 | 0.0 | 0.00 | 0.28 | 0.00 | 88 | 1021.2 | |
| 20260905055415 | 12 | 0.0 | 0.0 | 0.00 | 0.28 | 0.00 | 88 | 1021.2 | |
| 20260905054917 | 12 | 0.0 | 0.0 | 0.00 | 0.28 | 0.00 | 88 | 1021.1 | |
| 20260905054729 | 12 | 0.0 | 0.0 | 0.00 | 0.28 | 0.00 | 88 | 1021.1 | |
| 20260905053917 | 12 | 0.0 | 0.0 | 0.00 | 0.28 | 0.00 | 88 | 1021.0 | |
| 20260905053414 | 12 | 0.0 | 0.0 | 0.00 | 0.28 | 0.00 | 88 | 1021.0 | |
| 20260905052911 | 12 | 0.0 | 0.0 | 0.00 | 0.28 | 0.00 | 88 | 1021.0 | |
| 20260905052412 | 12 | 0.0 | 0.0 | 0.00 | 0.28 | 0.00 | 88 | 1021.0 | |
| 20260905051912 | 12 | 0.0 | 0.0 | 0.00 | 0.28 | 0.00 | 88 | 1020.8 | |
| 20260905051410 | 12 | 0.0 | 0.0 | 0.00 | 0.28 | 0.00 | 88 | 1020.8 | |
| 20260905050908 | 12 | 0.0 | 0.0 | 0.00 | 0.28 | 0.00 | 88 | 1020.7 | |
| 20260905050421 | 12 | 0.0 | 0.0 | 0.00 | 0.28 | 0.00 | 88 | 1020.8 | |
| 20260905050319 | 12 | 0.0 | 0.0 | 0.00 | 0.28 | 0.00 | 88 | 1020.8 | |
| 20260905045406 | 12 | 0.0 | 0.0 | 0.00 | 0.28 | 0.00 | 88 | 1020.7 | |
| 20260905044906 | 12 | 0.0 | 0.0 | 0.00 | 0.28 | 0.00 | 88 | 1020.8 | |
| 20260905044550 | 12 | 0.0 | 0.0 | 0.00 | 0.28 | 0.00 | 88 | 1020.5 | |
| 20260905044507 | 12 | 0.0 | 0.0 | 0.00 | 0.28 | 0.00 | 88 | 1020.7 | |
| 20260905043404 | 12 | 0.0 | 0.0 | 0.00 | 0.28 | 0.00 | 88 | 1020.5 | |
| 20260905042904 | 12 | 0.0 | 0.0 | 0.00 | 0.28 | 0.00 | 88 | 1020.5 | |
| 20260905042404 | 12 | 0.0 | 0.0 | 0.00 | 0.28 | 0.00 | 88 | 1020.3 | |
| 20260905041905 | 12 | 0.0 | 0.0 | 0.00 | 0.28 | 0.00 | 88 | 1020.3 | |
| 20260905041405 | 12 | 0.0 | 0.0 | 0.00 | 0.28 | 0.00 | 88 | 1020.3 | |
| 20260905040904 | 12 | 0.0 | 0.0 | 0.00 | 0.28 | 0.00 | 88 | 1020.4 | |
| 20260905040404 | 12 | 0.0 | 0.0 | 0.00 | 0.28 | 0.00 | 88 | 1020.3 | |
| 20260905035905 | 12 | 0.0 | 0.0 | 0.00 | 0.28 | 0.00 | 87 | 1020.4 | |
| 20260905035406 | 12 | 0.0 | 0.0 | 0.00 | 0.28 | 0.00 | 87 | 1020.3 | |
| 20260905034907 | 12 | 0.0 | 0.0 | 0.00 | 0.28 | 0.00 | 87 | 1020.2 | |
| 20260905034406 | 12 | 0.0 | 0.0 | 0.00 | 0.28 | 0.00 | 87 | 1020.3 | |
| 20260905033904 | 12 | 0.0 | 0.0 | 0.00 | 0.28 | 0.00 | 87 | 1020.2 | |
| 20260905033403 | 12 | 0.0 | 0.0 | 0.00 | 0.28 | 0.00 | 87 | 1020.1 | |
| 20260905032903 | 12 | 0.0 | 0.0 | 0.00 | 0.28 | 0.00 | 87 | 1020.1 | |
| 20260905032402 | 12 | 0.0 | 0.0 | 0.00 | 0.28 | 0.00 | 87 | 1020.1 | |
| 20260905031905 | 12 | 275 | 4.8 | 9.7 | 0.00 | 0.28 | 0.00 | 87 | 1020.0 |
| 20260905031358 | 12 | 275 | 4.8 | 20.9 | 0.00 | 0.28 | 0.00 | 86 | 1019.9 |
| 20260905030857 | 12 | 244 | 6.4 | 20.9 | 0.00 | 0.28 | 0.00 | 86 | 1019.8 |
| 20260905030356 | 12 | 296 | 4.8 | 16.1 | 0.00 | 0.28 | 0.00 | 86 | 1019.8 |
| 20260905025859 | 12 | 274 | 8.0 | 14.5 | 0.00 | 0.28 | 0.00 | 86 | 1019.8 |
| 20260905025708 | 12 | 278 | 6.4 | 17.7 | 0.00 | 0.28 | 0.00 | 86 | 1019.7 |
| 20260905024854 | 12 | 285 | 6.4 | 17.7 | 0.00 | 0.28 | 0.00 | 86 | 1019.7 |
| 20260905024713 | 13 | 288 | 4.8 | 11.3 | 0.00 | 0.28 | 0.00 | 86 | 1019.7 |
| 20260905023852 | 13 | 283 | 6.4 | 16.1 | 0.00 | 0.28 | 0.00 | 86 | 1019.7 |
| 20260905023352 | 13 | 295 | 6.4 | 16.1 | 0.00 | 0.28 | 0.00 | 86 | 1019.6 |
| 20260905022852 | 13 | 268 | 8.0 | 16.1 | 0.00 | 0.28 | 0.00 | 86 | 1019.6 |
| 20260905022352 | 13 | 251 | 8.0 | 17.7 | 0.00 | 0.28 | 0.00 | 86 | 1019.4 |
| 20260905021854 | 13 | 295 | 6.4 | 17.7 | 0.00 | 0.28 | 0.00 | 86 | 1019.5 |
| 20260905021353 | 13 | 255 | 6.4 | 14.5 | 0.00 | 0.28 | 0.00 | 86 | 1019.4 |
| 20260905020851 | 13 | 279 | 4.8 | 14.5 | 0.00 | 0.28 | 0.00 | 86 | 1019.4 |
| 20260905020350 | 12 | 272 | 6.4 | 14.5 | 0.00 | 0.28 | 0.00 | 86 | 1019.3 |
| 20260905015848 | 12 | 288 | 6.4 | 14.5 | 0.00 | 0.28 | 0.00 | 86 | 1019.3 |
| 20260905015347 | 12 | 296 | 6.4 | 11.3 | 0.00 | 0.28 | 0.00 | 86 | 1019.3 |
| 20260905014849 | 12 | 252 | 4.8 | 14.5 | 0.00 | 0.28 | 0.00 | 86 | 1019.3 |
| 20260905014355 | 12 | 279 | 6.4 | 14.5 | 0.00 | 0.28 | 0.00 | 86 | 1019.3 |
| 20260905014214 | 12 | 266 | 6.4 | 11.3 | 0.00 | 0.28 | 0.00 | 86 | 1019.3 |
| 20260905013529 | 12 | 261 | 4.8 | 14.5 | 0.00 | 0.28 | 0.00 | 86 | 1019.3 |
| 20260905013449 | 12 | 252 | 6.4 | 11.3 | 0.00 | 0.28 | 0.00 | 86 | 1019.3 |
| 20260905012347 | 13 | 248 | 8.0 | 14.5 | 0.00 | 0.28 | 0.00 | 85 | 1019.2 |
| 20260905011846 | 13 | 274 | 4.8 | 16.1 | 0.00 | 0.28 | 0.00 | 85 | 1019.1 |
| 20260905011344 | 13 | 259 | 6.4 | 16.1 | 0.00 | 0.28 | 0.00 | 85 | 1019.1 |
| 20260905010843 | 13 | 266 | 6.4 | 14.5 | 0.00 | 0.28 | 0.00 | 85 | 1019.2 |
| 20260905010336 | 13 | 248 | 6.4 | 11.3 | 0.00 | 0.28 | 0.00 | 85 | 1019.1 |
| 20260905005838 | 13 | 247 | 8.0 | 17.7 | 0.00 | 0.28 | 0.00 | 85 | 1019.0 |
| 20260905005629 | 13 | 276 | 6.4 | 17.7 | 0.00 | 0.28 | 0.00 | 85 | 1019.0 |
| 20260905004837 | 13 | 264 | 4.8 | 11.3 | 0.00 | 0.28 | 0.00 | 85 | 1019.1 |
| 20260905004334 | 13 | 248 | 6.4 | 9.7 | 0.00 | 0.28 | 0.00 | 85 | 1019.1 |
| 20260905003833 | 13 | 248 | 4.8 | 9.7 | 0.00 | 0.28 | 0.00 | 85 | 1019.0 |
| 20260905003330 | 13 | 283 | 4.8 | 9.7 | 0.00 | 0.28 | 0.00 | 85 | 1018.9 |
| 20260905002831 | 13 | 274 | 4.8 | 9.7 | 0.00 | 0.28 | 0.00 | 85 | 1018.9 |
| 20260905002333 | 13 | 257 | 3.2 | 9.7 | 0.00 | 0.28 | 0.00 | 85 | 1018.9 |
| 20260905002206 | 13 | 258 | 6.4 | 16.1 | 0.00 | 0.28 | 0.00 | 85 | 1018.9 |
| 20260905001334 | 13 | 264 | 6.4 | 16.1 | 0.00 | 0.28 | 0.00 | 84 | 1018.9 |
| 20260905000955 | 13 | 257 | 4.8 | 9.7 | 0.00 | 0.28 | 0.00 | 84 | 1018.9 |
| 20260905000922 | 13 | 255 | 4.8 | 9.7 | 0.00 | 0.28 | 0.00 | 84 | 1018.9 |
| 20260904235824 | 13 | 259 | 4.8 | 8.0 | 0.00 | 0.28 | 0.00 | 84 | 1018.8 |
| 20260904235322 | 13 | 269 | 3.2 | 11.3 | 0.00 | 0.28 | 0.00 | 84 | 1018.8 |
| 20260904234823 | 13 | 258 | 6.4 | 11.3 | 0.00 | 0.28 | 0.00 | 84 | 1018.7 |
| 20260904234322 | 13 | 278 | 4.8 | 11.3 | 0.00 | 0.28 | 0.00 | 83 | 1018.7 |
| 20260904233940 | 13 | 290 | 6.4 | 14.5 | 0.00 | 0.28 | 0.00 | 83 | 1018.7 |
| 20260904233918 | 13 | 303 | 6.4 | 14.5 | 0.00 | 0.28 | 0.00 | 83 | 1018.7 |
| 20260904233228 | 13 | 268 | 6.4 | 14.5 | 0.00 | 0.28 | 0.00 | 83 | 1018.6 |
| 20260904232618 | 13 | 244 | 6.4 | 14.5 | 0.00 | 0.28 | 0.00 | 83 | 1018.6 |
| 20260904231818 | 13 | 283 | 6.4 | 16.1 | 0.00 | 0.28 | 0.00 | 83 | 1018.7 |
| 20260904231317 | 13 | 303 | 6.4 | 16.1 | 0.00 | 0.28 | 0.00 | 83 | 1018.6 |
| 20260904230814 | 13 | 281 | 6.4 | 11.3 | 0.00 | 0.28 | 0.00 | 83 | 1018.6 |
| 20260904230318 | 13 | 290 | 6.4 | 11.3 | 0.00 | 0.28 | 0.00 | 83 | 1018.7 |
| 20260904225814 | 13 | 243 | 4.8 | 9.7 | 0.00 | 0.28 | 0.28 | 83 | 1018.6 |
| 20260904225627 | 13 | 266 | 6.4 | 9.7 | 0.00 | 0.28 | 0.28 | 83 | 1018.6 |
| 20260904224815 | 13 | 293 | 4.8 | 9.7 | 0.00 | 0.28 | 0.28 | 83 | 1018.7 |
| 20260904224313 | 13 | 255 | 4.8 | 14.5 | 0.00 | 0.28 | 0.28 | 82 | 1018.7 |
| 20260904224146 | 13 | 275 | 4.8 | 14.5 | 0.00 | 0.28 | 0.28 | 82 | 1018.5 |
| 20260904223314 | 13 | 303 | 4.8 | 9.7 | 0.00 | 0.28 | 0.28 | 82 | 1018.5 |
| 20260904222813 | 13 | 290 | 4.8 | 9.7 | 0.00 | 0.28 | 0.28 | 82 | 1018.4 |
| 20260904222615 | 13 | 266 | 4.8 | 9.7 | 0.00 | 0.28 | 0.28 | 82 | 1018.4 |
| 20260904221813 | 13 | 295 | 3.2 | 9.7 | 0.00 | 0.28 | 0.28 | 82 | 1018.4 |
| 20260904221313 | 13 | 288 | 3.2 | 9.7 | 0.00 | 0.28 | 0.28 | 82 | 1018.4 |
| 20260904220811 | 13 | 282 | 3.2 | 14.5 | 0.00 | 0.28 | 0.28 | 81 | 1018.4 |
| 20260904220309 | 13 | 271 | 6.4 | 14.5 | 0.00 | 0.28 | 0.28 | 81 | 1018.3 |
| 20260904215809 | 13 | 271 | 4.8 | 14.5 | 0.00 | 0.28 | 0.28 | 81 | 1018.2 |
| 20260904215308 | 13 | 258 | 6.4 | 9.7 | 0.00 | 0.28 | 0.28 | 80 | 1018.3 |
| 20260904214808 | 13 | 274 | 4.8 | 9.7 | 0.00 | 0.28 | 0.28 | 80 | 1018.4 |
| 20260904214305 | 13 | 259 | 4.8 | 8.0 | 0.00 | 0.28 | 0.28 | 80 | 1018.2 |
| 20260904214134 | 13 | 268 | 3.2 | 11.3 | 0.00 | 0.28 | 0.28 | 80 | 1018.1 |
| 20260904213304 | 13 | 252 | 3.2 | 11.3 | 0.00 | 0.28 | 0.28 | 80 | 1018.1 |
| 20260904212803 | 13 | 262 | 4.8 | 9.7 | 0.00 | 0.28 | 0.28 | 80 | 1018.1 |
| 20260904212302 | 13 | 248 | 4.8 | 9.7 | 0.00 | 0.28 | 0.28 | 79 | 1018.2 |
| 20260904212131 | 14 | 261 | 4.8 | 9.7 | 0.00 | 0.28 | 0.28 | 79 | 1018.1 |
| 20260904211259 | 14 | 259 | 4.8 | 8.0 | 0.00 | 0.28 | 0.28 | 79 | 1018.1 |
| 20260904210758 | 14 | 254 | 4.8 | 8.0 | 0.00 | 0.28 | 0.28 | 78 | 1018.0 |
| 20260904210258 | 14 | 278 | 4.8 | 8.0 | 0.00 | 0.28 | 0.28 | 78 | 1018.0 |
| 20260904205758 | 14 | 257 | 6.4 | 9.7 | 0.00 | 0.28 | 0.28 | 78 | 1018.0 |
| 20260904205603 | 14 | 255 | 4.8 | 11.3 | 0.00 | 0.28 | 0.28 | 78 | 1018.0 |
| 20260904204758 | 14 | 248 | 8.0 | 11.3 | 0.00 | 0.28 | 0.28 | 78 | 1018.0 |
| 20260904204252 | 14 | 282 | 3.2 | 14.5 | 0.00 | 0.28 | 0.28 | 78 | 1017.9 |
| 20260904203749 | 14 | 261 | 3.2 | 14.5 | 0.00 | 0.28 | 0.28 | 77 | 1017.8 |
| 20260904203251 | 14 | 286 | 3.2 | 11.3 | 0.00 | 0.28 | 0.28 | 77 | 1017.9 |
| 20260904202914 | 14 | 262 | 3.2 | 8.0 | 0.00 | 0.28 | 0.28 | 76 | 1017.9 |
| 20260904202849 | 14 | 282 | 4.8 | 11.3 | 0.00 | 0.28 | 0.28 | 77 | 1017.8 |
| 20260904201754 | 14 | 286 | 3.2 | 8.0 | 0.00 | 0.28 | 0.28 | 76 | 1018.0 |
| 20260904201250 | 15 | 282 | 4.8 | 9.7 | 0.00 | 0.28 | 0.28 | 76 | 1018.0 |
| 20260904201142 | 15 | 281 | 4.8 | 9.7 | 0.00 | 0.28 | 0.28 | 76 | 1017.9 |
| 20260904200250 | 15 | 292 | 3.2 | 9.7 | 0.00 | 0.28 | 0.28 | 76 | 1017.9 |
| 20260904195749 | 15 | 276 | 4.8 | 9.7 | 0.00 | 0.28 | 0.28 | 76 | 1017.9 |
| 20260904195253 | 15 | 292 | 4.8 | 8.0 | 0.00 | 0.28 | 0.28 | 77 | 1017.9 |
| 20260904194750 | 15 | 254 | 3.2 | 8.0 | 0.00 | 0.28 | 0.28 | 77 | 1017.8 |
| 20260904194249 | 15 | 250 | 3.2 | 9.7 | 0.00 | 0.28 | 0.28 | 77 | 1017.7 |
| 20260904193755 | 15 | 251 | 4.8 | 9.7 | 0.00 | 0.28 | 0.28 | 76 | 1017.6 |
| 20260904193250 | 15 | 258 | 6.4 | 8.0 | 0.00 | 0.28 | 0.28 | 75 | 1017.4 |
| 20260904193204 | 15 | 265 | 4.8 | 8.0 | 0.00 | 0.28 | 0.28 | 76 | 1017.4 |
| 20260904192251 | 15 | 288 | 3.2 | 8.0 | 0.00 | 0.28 | 0.28 | 76 | 1017.3 |
| 20260904191749 | 16 | 279 | 4.8 | 14.5 | 0.00 | 0.28 | 0.28 | 76 | 1017.1 |
| 20260904191606 | 16 | 292 | 4.8 | 14.5 | 0.00 | 0.28 | 0.28 | 75 | 1017.1 |
| 20260904190748 | 16 | 251 | 3.2 | 8.0 | 0.00 | 0.28 | 0.28 | 75 | 1017.0 |
| 20260904190247 | 16 | 257 | 3.2 | 6.4 | 0.00 | 0.28 | 0.28 | 75 | 1016.9 |